ONEWEB-0249, 48967

Orbit data source: Space-Track

ONEWEB-0249, 48967 is a payload satellite owned by One Web (NAA) (UK) in LEO that was launched on Thu, 01 Jul 2021 UTC via a SOYUZ-2-1B launch vehicle from the Vostochny Cosmodrome (VOSTO). Payload-class satellites include a variety of spacecraft equipped with specific instruments for various scientific and technological missions. These include communications satellites like Starlink; space stations such as the ISS; scientific satellites like the Hubble; Earth observation satellites from companies like Planet Labs, Umbra, and HawkEye 360; GPS; miniature CubeSats for education and research; and military/defense satellites.

Loading next visibility...
Identifier
48967, 2021-060A
Orbit
LEO
Country
Flag of UKUK
Related business
Manufacturer
One Web
Mission
Operational Commercial Communications
Bus & Motor
ARROW, Unknown motor
Mass
148 kg wet, ~140 kg dry
Launch date (UTC)
2021-07-01 (5 years ago)
Launch vehicle
SOYUZ-2-1B
Launch site
Vostochny Cosmodrome (VOSTO)
Object type
Payload
Rocket body
Debris
Shape & HBR
Trap Box + 2 Pan, 6.7 m
Radar Cross Section
3.464 m², Large (>1 m²)

Expand to show TLE details & history
Last TLE update: 2 days ago

TLE from 2 days ago
0 ONEWEB-0249
1 48967U 21060A   26171.39675433  .00000082  00000-0  18215-3 0  9990
2 48967  87.9096 228.1409 0002073 100.7124 259.4240 13.16596028240034
Epoch: 2026-06-20T09:31Z
TLE epoch observation values (Epoch: 2026-06-20T09:31:19.574Z)
Latitude
-0.00004°
Longitude
176.69737°
Altitude
1,200.935 km
Speed
7.253 km/s
True Right ascension
15h 12m 33s
True Declination
0° 00' 00"
Sunlit
Object was in full shadow at epoch
Visualization orbit readout
Latitude
Unknown
Longitude
Unknown
Altitude
Unknown
Speed
Unknown
Apparent Right ascension
Unknown
Apparent Declination
Unknown
Sunlit
N/A
Visualization observer readout
Local Sidereal Time
21:36:51
Azimuth
Unknown
Elevation
Unknown
Doppler factor
Unknown
Orbital elements
Apogee altitude
1,196.43 km
Perigee altitude
1,193.29 km
Semi-major axis
7,572.997 km
Eccentricity
0.00021
Inclination
87.9096°
RAAN
228.1409°
Arg. of periapsis
100.7124°
True anomaly
259.40065°
Mean anomaly
259.424°
Eccentric anomaly
259.41232°
Mean motion
3.29338 °/min
Orbital period
109.31 mins
BSTAR
0.00018215
Loading maneuver chart data...
Computing Atmospheric mass density...
Loading historical data...
Loading historical data...
Loading historical data...
Loading historical data...
Loading historical data...
Loading historical data...
Loading historical data...

Documentation

Showing up to 5 results
|